Year,Month,Day,Hour,Minute,Value (Times are PST for temperature in C)
2010,06,29,00,00,12.20
2010,06,29,00,01,12.10
2010,06,29,00,02,12.10
2010,06,29,00,03,12.10
2010,06,29,00,04,12.10
2010,06,29,00,05,12.10
2010,06,29,00,06,12.10
2010,06,29,00,07,12.10
2010,06,29,00,08,12.10
2010,06,29,00,09,12.10
2010,06,29,00,10,12.10
2010,06,29,00,11,12.10
2010,06,29,00,12,12.10
2010,06,29,00,13,12.10
2010,06,29,00,14,12.10
2010,06,29,00,15,12.00
2010,06,29,00,16,12.00
2010,06,29,00,17,12.00
2010,06,29,00,18,12.00
2010,06,29,00,19,12.00
2010,06,29,00,20,12.00
2010,06,29,00,21,12.00
2010,06,29,00,22,12.00
2010,06,29,00,23,12.00
2010,06,29,00,24,12.00
2010,06,29,00,25,11.90
2010,06,29,00,26,11.90
2010,06,29,00,27,11.90
2010,06,29,00,28,11.90
2010,06,29,00,29,11.90
2010,06,29,00,30,11.80
2010,06,29,00,31,11.80
2010,06,29,00,32,11.80
2010,06,29,00,33,11.80
2010,06,29,00,34,11.70
2010,06,29,00,35,11.70
2010,06,29,00,36,11.70
2010,06,29,00,37,11.70
2010,06,29,00,38,11.70
2010,06,29,00,39,11.60
2010,06,29,00,40,11.60
2010,06,29,00,41,11.60
2010,06,29,00,42,11.60
2010,06,29,00,43,11.60
2010,06,29,00,44,11.60
2010,06,29,00,45,11.60
2010,06,29,00,46,11.60
2010,06,29,00,47,11.60
2010,06,29,00,48,11.60
2010,06,29,00,49,11.60
2010,06,29,00,50,11.60
2010,06,29,00,51,11.50
2010,06,29,00,52,11.50
2010,06,29,00,53,11.50
2010,06,29,00,54,11.50
2010,06,29,00,55,11.50
2010,06,29,00,56,11.40
2010,06,29,00,57,11.40
2010,06,29,00,58,11.40
2010,06,29,00,59,11.40
2010,06,29,01,00,11.40
2010,06,29,01,01,11.30
2010,06,29,01,02,11.30
2010,06,29,01,03,11.30
2010,06,29,01,04,11.30
2010,06,29,01,05,11.30
2010,06,29,01,06,11.30
2010,06,29,01,07,11.30
2010,06,29,01,08,11.30
2010,06,29,01,09,11.30
2010,06,29,01,10,11.30
2010,06,29,01,11,11.30
2010,06,29,01,12,11.40
2010,06,29,01,13,11.40
2010,06,29,01,14,11.40
2010,06,29,01,15,11.40
2010,06,29,01,16,11.30
2010,06,29,01,17,11.30
2010,06,29,01,18,11.30
2010,06,29,01,19,11.30
2010,06,29,01,20,11.30
2010,06,29,01,21,11.30
2010,06,29,01,22,11.30
2010,06,29,01,23,11.30
2010,06,29,01,24,11.30
2010,06,29,01,25,11.30
2010,06,29,01,26,11.30
2010,06,29,01,27,11.30
2010,06,29,01,28,11.30
2010,06,29,01,29,11.30
2010,06,29,01,30,11.30
2010,06,29,01,31,11.30
2010,06,29,01,32,11.30
2010,06,29,01,33,11.30
2010,06,29,01,34,11.30
2010,06,29,01,35,11.30
2010,06,29,01,36,11.30
2010,06,29,01,37,11.30
2010,06,29,01,38,11.30
2010,06,29,01,39,11.30
2010,06,29,01,40,11.20
2010,06,29,01,41,11.20
2010,06,29,01,42,11.20
2010,06,29,01,43,11.20
2010,06,29,01,44,11.20
2010,06,29,01,45,11.20
2010,06,29,01,46,11.20
2010,06,29,01,47,11.10
2010,06,29,01,48,11.10
2010,06,29,01,49,11.10
2010,06,29,01,50,11.10
2010,06,29,01,51,11.20
2010,06,29,01,52,11.20
2010,06,29,01,53,11.20
2010,06,29,01,54,11.20
2010,06,29,01,55,11.20
2010,06,29,01,56,11.20
2010,06,29,01,57,11.20
2010,06,29,01,58,11.10
2010,06,29,01,59,11.10
2010,06,29,02,00,11.10
2010,06,29,02,01,11.10
2010,06,29,02,02,11.10
2010,06,29,02,03,11.10
2010,06,29,02,04,11.00
2010,06,29,02,05,11.00
2010,06,29,02,06,11.10
2010,06,29,02,07,11.10
2010,06,29,02,08,11.10
2010,06,29,02,09,11.10
2010,06,29,02,10,11.10
2010,06,29,02,11,11.10
2010,06,29,02,12,11.10
2010,06,29,02,13,11.10
2010,06,29,02,14,11.10
2010,06,29,02,15,11.10
2010,06,29,02,16,11.10
2010,06,29,02,17,11.10
2010,06,29,02,18,11.10
2010,06,29,02,19,11.10
2010,06,29,02,20,11.10
2010,06,29,02,21,11.10
2010,06,29,02,22,11.10
2010,06,29,02,23,11.00
2010,06,29,02,24,11.00
2010,06,29,02,25,11.00
2010,06,29,02,26,11.00
2010,06,29,02,27,11.00
2010,06,29,02,28,11.00
2010,06,29,02,29,11.00
2010,06,29,02,30,11.00
2010,06,29,02,31,11.00
2010,06,29,02,32,11.00
2010,06,29,02,33,11.00
2010,06,29,02,34,11.00
2010,06,29,02,35,11.00
2010,06,29,02,36,10.90
2010,06,29,02,37,10.90
2010,06,29,02,38,10.90
2010,06,29,02,39,10.90
2010,06,29,02,40,10.90
2010,06,29,02,41,10.80
2010,06,29,02,42,10.80
2010,06,29,02,43,10.80
2010,06,29,02,44,10.80
2010,06,29,02,45,10.80
2010,06,29,02,46,10.80
2010,06,29,02,47,10.80
2010,06,29,02,48,10.70
2010,06,29,02,49,10.70
2010,06,29,02,50,10.70
2010,06,29,02,51,10.70
2010,06,29,02,52,10.70
2010,06,29,02,53,10.60
2010,06,29,02,54,10.60
2010,06,29,02,55,10.50
2010,06,29,02,56,10.40
2010,06,29,02,57,10.30
2010,06,29,02,58,10.30
2010,06,29,02,59,10.20
2010,06,29,03,00,10.20
2010,06,29,03,01,10.20
2010,06,29,03,02,10.20
2010,06,29,03,03,10.20
2010,06,29,03,04,10.20
2010,06,29,03,05,10.20
2010,06,29,03,06,10.20
2010,06,29,03,07,10.20
2010,06,29,03,08,10.20
2010,06,29,03,09,10.10
2010,06,29,03,10,10.10
2010,06,29,03,11,10.10
2010,06,29,03,12,10.00
2010,06,29,03,13,10.00
2010,06,29,03,14,9.90
2010,06,29,03,15,9.90
2010,06,29,03,16,9.90
2010,06,29,03,17,9.80
2010,06,29,03,18,9.80
2010,06,29,03,19,9.70
2010,06,29,03,20,9.70
2010,06,29,03,21,9.70
2010,06,29,03,22,9.60
2010,06,29,03,23,9.60
2010,06,29,03,24,9.60
2010,06,29,03,25,9.70
2010,06,29,03,26,9.70
2010,06,29,03,27,9.70
2010,06,29,03,28,9.70
2010,06,29,03,29,9.70
2010,06,29,03,30,9.60
2010,06,29,03,31,9.60
2010,06,29,03,32,9.60
2010,06,29,03,33,9.60
2010,06,29,03,34,9.60
2010,06,29,03,35,9.70
2010,06,29,03,36,9.70
2010,06,29,03,37,9.70
2010,06,29,03,38,9.70
2010,06,29,03,39,9.70
2010,06,29,03,40,9.70
2010,06,29,03,41,9.70
2010,06,29,03,42,9.60
2010,06,29,03,43,9.60
2010,06,29,03,44,9.60
2010,06,29,03,45,9.60
2010,06,29,03,46,9.60
2010,06,29,03,47,9.60
2010,06,29,03,48,9.60
2010,06,29,03,49,9.60
2010,06,29,03,50,9.60
2010,06,29,03,51,9.50
2010,06,29,03,52,9.50
2010,06,29,03,53,9.50
2010,06,29,03,54,9.40
2010,06,29,03,55,9.40
2010,06,29,03,56,9.40
2010,06,29,03,57,9.30
2010,06,29,03,58,9.30
2010,06,29,03,59,9.30
2010,06,29,04,00,9.30
2010,06,29,04,01,9.20
2010,06,29,04,02,9.20
2010,06,29,04,03,9.20
2010,06,29,04,04,9.10
2010,06,29,04,05,9.10
2010,06,29,04,06,9.00
2010,06,29,04,07,9.00
2010,06,29,04,08,9.00
2010,06,29,04,09,8.90
2010,06,29,04,10,8.90
2010,06,29,04,11,8.90
2010,06,29,04,12,8.80
2010,06,29,04,13,8.80
2010,06,29,04,14,8.80
2010,06,29,04,15,8.80
2010,06,29,04,16,8.80
2010,06,29,04,17,8.70
2010,06,29,04,18,8.70
2010,06,29,04,19,8.70
2010,06,29,04,20,8.70
2010,06,29,04,21,8.70
2010,06,29,04,22,8.70
2010,06,29,04,23,8.70
2010,06,29,04,24,8.70
2010,06,29,04,25,8.70
2010,06,29,04,26,8.70
2010,06,29,04,27,8.70
2010,06,29,04,28,8.70
2010,06,29,04,29,8.70
2010,06,29,04,30,8.70
2010,06,29,04,31,8.70
2010,06,29,04,32,8.70
2010,06,29,04,33,8.70
2010,06,29,04,34,8.70
2010,06,29,04,35,8.70
2010,06,29,04,36,8.60
2010,06,29,04,37,8.50
2010,06,29,04,38,8.50
2010,06,29,04,39,8.40
2010,06,29,04,40,8.30
2010,06,29,04,41,8.30
2010,06,29,04,42,8.20
2010,06,29,04,43,8.20
2010,06,29,04,44,8.10
2010,06,29,04,45,8.10
2010,06,29,04,46,8.10
2010,06,29,04,47,8.10
2010,06,29,04,48,8.10
2010,06,29,04,49,8.10
2010,06,29,04,50,8.10
2010,06,29,04,51,8.10
2010,06,29,04,52,8.10
2010,06,29,04,53,8.00
2010,06,29,04,54,8.00
2010,06,29,04,55,8.00
2010,06,29,04,56,8.00
2010,06,29,04,57,8.00
2010,06,29,04,58,8.00
2010,06,29,04,59,7.90
2010,06,29,05,00,7.90
2010,06,29,05,01,7.90
2010,06,29,05,02,7.90
2010,06,29,05,03,8.00
2010,06,29,05,04,8.00
2010,06,29,05,05,8.00
2010,06,29,05,06,8.00
2010,06,29,05,07,8.00
2010,06,29,05,08,8.00
2010,06,29,05,09,8.00
2010,06,29,05,10,8.00
2010,06,29,05,11,7.90
2010,06,29,05,12,7.90
2010,06,29,05,13,7.90
2010,06,29,05,14,7.90
2010,06,29,05,15,7.80
2010,06,29,05,16,7.80
2010,06,29,05,17,7.80
2010,06,29,05,18,7.70
2010,06,29,05,19,7.70
2010,06,29,05,20,7.70
2010,06,29,05,21,7.60
2010,06,29,05,22,7.60
2010,06,29,05,23,7.60
2010,06,29,05,24,7.60
2010,06,29,05,25,7.50
2010,06,29,05,26,7.60
2010,06,29,05,27,7.60
2010,06,29,05,28,7.60
2010,06,29,05,29,7.70
2010,06,29,05,30,7.80
2010,06,29,05,31,7.80
2010,06,29,05,32,7.90
2010,06,29,05,33,7.90
2010,06,29,05,34,7.80
2010,06,29,05,35,7.80
2010,06,29,05,36,7.80
2010,06,29,05,37,7.80
2010,06,29,05,38,7.80
2010,06,29,05,39,7.80
2010,06,29,05,40,7.70
2010,06,29,05,41,7.70
2010,06,29,05,42,7.70
2010,06,29,05,43,7.70
2010,06,29,05,44,7.70
2010,06,29,05,45,7.70
2010,06,29,05,46,7.70
2010,06,29,05,47,7.60
2010,06,29,05,48,7.60
2010,06,29,05,49,7.50
2010,06,29,05,50,7.50
2010,06,29,05,51,7.40
2010,06,29,05,52,7.40
2010,06,29,05,53,7.40
2010,06,29,05,54,7.40
2010,06,29,05,55,7.40
2010,06,29,05,56,7.30
2010,06,29,05,57,7.30
2010,06,29,05,58,7.30
2010,06,29,05,59,7.40
2010,06,29,06,00,7.40
2010,06,29,06,01,7.40
2010,06,29,06,02,7.50
2010,06,29,06,03,7.60
2010,06,29,06,04,7.70
2010,06,29,06,05,7.80
2010,06,29,06,06,7.90
2010,06,29,06,07,8.00
2010,06,29,06,08,8.00
2010,06,29,06,09,8.10
2010,06,29,06,10,8.10
2010,06,29,06,11,8.20
2010,06,29,06,12,8.20
2010,06,29,06,13,8.20
2010,06,29,06,14,8.30
2010,06,29,06,15,8.30
2010,06,29,06,16,8.30
2010,06,29,06,17,8.30
2010,06,29,06,18,8.40
2010,06,29,06,19,8.40
2010,06,29,06,20,8.40
2010,06,29,06,21,8.40
2010,06,29,06,22,8.40
2010,06,29,06,23,8.50
2010,06,29,06,24,8.50
2010,06,29,06,25,8.50
2010,06,29,06,26,8.60
2010,06,29,06,27,8.60
2010,06,29,06,28,8.70
2010,06,29,06,29,8.70
2010,06,29,06,30,8.80
2010,06,29,06,31,8.80
2010,06,29,06,32,8.80
2010,06,29,06,33,8.90
2010,06,29,06,34,8.90
2010,06,29,06,35,8.90
2010,06,29,06,36,9.00
2010,06,29,06,37,9.00
2010,06,29,06,38,9.10
2010,06,29,06,39,9.10
2010,06,29,06,40,9.10
2010,06,29,06,41,9.10
2010,06,29,06,42,9.10
2010,06,29,06,43,9.10
2010,06,29,06,44,9.20
2010,06,29,06,45,9.20
2010,06,29,06,46,9.20
2010,06,29,06,47,9.20
2010,06,29,06,48,9.20
2010,06,29,06,49,9.20
2010,06,29,06,50,9.20
2010,06,29,06,51,9.20
2010,06,29,06,52,9.30
2010,06,29,06,53,9.30
2010,06,29,06,54,9.40
2010,06,29,06,55,9.50
2010,06,29,06,56,9.60
2010,06,29,06,57,9.70
2010,06,29,06,58,9.90
2010,06,29,06,59,10.10
2010,06,29,07,00,10.20
2010,06,29,07,01,10.30
2010,06,29,07,02,10.50
2010,06,29,07,03,10.50
2010,06,29,07,04,10.60
2010,06,29,07,05,10.70
2010,06,29,07,06,10.80
2010,06,29,07,07,10.80
2010,06,29,07,08,10.90
2010,06,29,07,09,11.00
2010,06,29,07,10,11.10
2010,06,29,07,11,11.10
2010,06,29,07,12,11.10
2010,06,29,07,13,11.10
2010,06,29,07,14,11.10
2010,06,29,07,15,11.10
2010,06,29,07,16,11.10
2010,06,29,07,17,11.10
2010,06,29,07,18,11.10
2010,06,29,07,19,11.20
2010,06,29,07,20,11.20
2010,06,29,07,21,11.30
2010,06,29,07,22,11.40
2010,06,29,07,23,11.50
2010,06,29,07,24,11.50
2010,06,29,07,25,11.60
2010,06,29,07,26,11.70
2010,06,29,07,27,11.90
2010,06,29,07,28,12.00
2010,06,29,07,29,12.20
2010,06,29,07,30,12.20
2010,06,29,07,31,12.30
2010,06,29,07,32,12.40
2010,06,29,07,33,12.40
2010,06,29,07,34,12.50
2010,06,29,07,35,12.60
2010,06,29,07,36,12.70
2010,06,29,07,37,12.70
2010,06,29,07,38,12.80
2010,06,29,07,39,12.90
2010,06,29,07,40,12.90
2010,06,29,07,41,12.90
2010,06,29,07,42,12.90
2010,06,29,07,43,13.00
2010,06,29,07,44,13.00
2010,06,29,07,45,13.10
2010,06,29,07,46,13.10
2010,06,29,07,47,13.20
2010,06,29,07,48,13.30
2010,06,29,07,49,13.30
2010,06,29,07,50,13.50
2010,06,29,07,51,13.60
2010,06,29,07,52,13.60
2010,06,29,07,53,13.80
2010,06,29,07,54,13.80
2010,06,29,07,55,13.80
2010,06,29,07,56,13.80
2010,06,29,07,57,13.80
2010,06,29,07,58,13.80
2010,06,29,07,59,13.80
2010,06,29,08,00,13.70
2010,06,29,08,01,13.70
2010,06,29,08,02,13.70
2010,06,29,08,03,13.70
2010,06,29,08,04,13.70
2010,06,29,08,05,13.70
2010,06,29,08,06,13.60
2010,06,29,08,07,13.60
2010,06,29,08,08,13.60
2010,06,29,08,09,13.60
2010,06,29,08,10,13.60
2010,06,29,08,11,13.60
2010,06,29,08,12,13.60
2010,06,29,08,13,13.60
2010,06,29,08,14,13.70
2010,06,29,08,15,13.70
2010,06,29,08,16,13.70
2010,06,29,08,17,13.70
2010,06,29,08,18,13.70
2010,06,29,08,19,13.70
2010,06,29,08,20,13.70
2010,06,29,08,21,13.70
2010,06,29,08,22,13.70
2010,06,29,08,23,13.70
2010,06,29,08,24,13.60
2010,06,29,08,25,13.60
2010,06,29,08,26,13.60
2010,06,29,08,27,13.50
2010,06,29,08,28,13.50
2010,06,29,08,29,13.50
2010,06,29,08,30,13.50
2010,06,29,08,31,13.50
2010,06,29,08,32,13.60
2010,06,29,08,33,13.60
2010,06,29,08,34,13.60
2010,06,29,08,35,13.60
2010,06,29,08,36,13.60
2010,06,29,08,37,13.50
2010,06,29,08,38,13.40
2010,06,29,08,39,13.40
2010,06,29,08,40,13.40
2010,06,29,08,41,13.40
2010,06,29,08,42,13.40
2010,06,29,08,43,13.40
2010,06,29,08,44,13.40
2010,06,29,08,45,13.40
2010,06,29,08,46,13.50
2010,06,29,08,47,13.50
2010,06,29,08,48,13.60
2010,06,29,08,49,13.60
2010,06,29,08,50,13.70
2010,06,29,08,51,13.70
2010,06,29,08,52,13.80
2010,06,29,08,53,13.90
2010,06,29,08,54,14.10
2010,06,29,08,55,14.20
2010,06,29,08,56,14.40
2010,06,29,08,57,14.40
2010,06,29,08,58,14.50
2010,06,29,08,59,14.50
2010,06,29,09,00,14.50
2010,06,29,09,01,14.40
2010,06,29,09,02,14.40
2010,06,29,09,03,14.40
2010,06,29,09,04,14.40
2010,06,29,09,05,14.50
2010,06,29,09,06,14.60
2010,06,29,09,07,14.70
2010,06,29,09,08,14.70
2010,06,29,09,09,14.80
2010,06,29,09,10,14.80
2010,06,29,09,11,14.90
2010,06,29,09,12,15.00
2010,06,29,09,13,15.00
2010,06,29,09,14,15.00
2010,06,29,09,15,15.00
2010,06,29,09,16,15.00
2010,06,29,09,17,15.20
2010,06,29,09,18,15.30
2010,06,29,09,19,15.30
2010,06,29,09,20,15.30
2010,06,29,09,21,15.40
2010,06,29,09,22,15.50
2010,06,29,09,23,15.60
2010,06,29,09,24,15.60
2010,06,29,09,25,15.60
2010,06,29,09,26,15.50
2010,06,29,09,27,15.50
2010,06,29,09,28,15.50
2010,06,29,09,29,15.50
2010,06,29,09,30,15.40
2010,06,29,09,31,15.30
2010,06,29,09,32,15.40
2010,06,29,09,33,15.40
2010,06,29,09,34,15.30
2010,06,29,09,35,15.20
2010,06,29,09,36,15.20
2010,06,29,09,37,15.10
2010,06,29,09,38,15.20
2010,06,29,09,39,15.30
2010,06,29,09,40,15.30
2010,06,29,09,41,15.30
2010,06,29,09,42,15.30
2010,06,29,09,43,15.30
2010,06,29,09,44,15.50
2010,06,29,09,45,15.70
2010,06,29,09,46,15.80
2010,06,29,09,47,15.90
2010,06,29,09,48,15.90
2010,06,29,09,49,15.80
2010,06,29,09,50,15.60
2010,06,29,09,51,15.60
2010,06,29,09,52,15.60
2010,06,29,09,53,15.60
2010,06,29,09,54,15.60
2010,06,29,09,55,15.50
2010,06,29,09,56,15.40
2010,06,29,09,57,15.30
2010,06,29,09,58,15.10
2010,06,29,09,59,15.00
2010,06,29,10,00,15.00
2010,06,29,10,01,14.90
2010,06,29,10,02,14.80
2010,06,29,10,03,14.80
2010,06,29,10,04,14.80
2010,06,29,10,05,14.70
2010,06,29,10,06,14.60
2010,06,29,10,07,14.50
2010,06,29,10,08,14.50
2010,06,29,10,09,14.60
2010,06,29,10,10,14.50
2010,06,29,10,11,14.50
2010,06,29,10,12,14.50
2010,06,29,10,13,14.50
2010,06,29,10,14,14.50
2010,06,29,10,15,14.60
2010,06,29,10,16,14.60
2010,06,29,10,17,14.60
2010,06,29,10,18,14.70
2010,06,29,10,19,14.70
2010,06,29,10,20,14.80
2010,06,29,10,21,14.80
2010,06,29,10,22,14.90
2010,06,29,10,23,14.90
2010,06,29,10,24,14.90
2010,06,29,10,25,14.90
2010,06,29,10,26,15.00
2010,06,29,10,27,15.00
2010,06,29,10,28,15.00
2010,06,29,10,29,15.00
2010,06,29,10,30,15.10
2010,06,29,10,31,15.10
2010,06,29,10,32,15.20
2010,06,29,10,33,15.20
2010,06,29,10,34,15.20
2010,06,29,10,35,15.30
2010,06,29,10,36,15.30
2010,06,29,10,37,15.40
2010,06,29,10,38,15.40
2010,06,29,10,39,15.50
2010,06,29,10,40,15.50
2010,06,29,10,41,15.50
2010,06,29,10,42,15.50
2010,06,29,10,43,15.40
2010,06,29,10,44,15.40
2010,06,29,10,45,15.30
2010,06,29,10,46,15.10
2010,06,29,10,47,14.90
2010,06,29,10,48,14.70
2010,06,29,10,49,14.60
2010,06,29,10,50,14.50
2010,06,29,10,51,14.40
2010,06,29,10,52,14.40
2010,06,29,10,53,14.30
2010,06,29,10,54,14.30
2010,06,29,10,55,14.20
2010,06,29,10,56,14.20
2010,06,29,10,57,14.10
2010,06,29,10,58,14.10
2010,06,29,10,59,14.00
2010,06,29,11,00,14.10
2010,06,29,11,01,14.10
2010,06,29,11,02,14.10
2010,06,29,11,03,14.10
2010,06,29,11,04,14.10
2010,06,29,11,05,14.10
2010,06,29,11,06,14.10
2010,06,29,11,07,14.00
2010,06,29,11,08,14.00
2010,06,29,11,09,13.90
2010,06,29,11,10,13.90
2010,06,29,11,11,13.90
2010,06,29,11,12,14.00
2010,06,29,11,13,14.00
2010,06,29,11,14,14.00
2010,06,29,11,15,13.90
2010,06,29,11,16,13.80
2010,06,29,11,17,13.80
2010,06,29,11,18,13.80
2010,06,29,11,19,13.80
2010,06,29,11,20,13.80
2010,06,29,11,21,13.80
2010,06,29,11,22,13.80
2010,06,29,11,23,13.80
2010,06,29,11,24,13.70
2010,06,29,11,25,13.70
2010,06,29,11,26,13.70
2010,06,29,11,27,13.70
2010,06,29,11,28,13.70
2010,06,29,11,29,13.60
2010,06,29,11,30,13.60
2010,06,29,11,31,13.50
2010,06,29,11,32,13.50
2010,06,29,11,33,13.40
2010,06,29,11,34,13.40
2010,06,29,11,35,13.40
2010,06,29,11,36,13.50
2010,06,29,11,37,13.50
2010,06,29,11,38,13.60
2010,06,29,11,39,13.60
2010,06,29,11,40,13.70
2010,06,29,11,41,13.70
2010,06,29,11,42,13.80
2010,06,29,11,43,13.80
2010,06,29,11,44,13.90
2010,06,29,11,45,14.00
2010,06,29,11,46,14.00
2010,06,29,11,47,13.90
2010,06,29,11,48,13.90
2010,06,29,11,49,13.90
2010,06,29,11,50,13.90
2010,06,29,11,51,13.90
2010,06,29,11,52,13.90
2010,06,29,11,53,14.00
2010,06,29,11,54,14.00
2010,06,29,11,55,14.10
2010,06,29,11,56,14.20
2010,06,29,11,57,14.30
2010,06,29,11,58,14.30
2010,06,29,11,59,14.40
2010,06,29,12,00,14.50
2010,06,29,12,01,14.50
2010,06,29,12,02,14.60
2010,06,29,12,03,14.60
2010,06,29,12,04,14.70
2010,06,29,12,05,14.70
2010,06,29,12,06,14.70
2010,06,29,12,07,14.70
2010,06,29,12,08,14.70
2010,06,29,12,09,14.80
2010,06,29,12,10,14.80
2010,06,29,12,11,14.80
2010,06,29,12,12,14.80
2010,06,29,12,13,14.80
2010,06,29,12,14,14.70
2010,06,29,12,15,14.70
2010,06,29,12,16,14.60
2010,06,29,12,17,14.60
2010,06,29,12,18,14.50
2010,06,29,12,19,14.50
2010,06,29,12,20,14.40
2010,06,29,12,21,14.40
2010,06,29,12,22,14.40
2010,06,29,12,23,14.50
2010,06,29,12,24,14.60
2010,06,29,12,25,14.60
2010,06,29,12,26,14.50
2010,06,29,12,27,14.50
2010,06,29,12,28,14.40
2010,06,29,12,29,14.30
2010,06,29,12,30,14.30
2010,06,29,12,31,14.30
2010,06,29,12,32,14.30
2010,06,29,12,33,14.30
2010,06,29,12,34,14.40
2010,06,29,12,35,14.40
2010,06,29,12,36,14.50
2010,06,29,12,37,14.50
2010,06,29,12,38,14.60
2010,06,29,12,39,14.60
2010,06,29,12,40,14.60
2010,06,29,12,41,14.50
2010,06,29,12,42,14.50
2010,06,29,12,43,14.50
2010,06,29,12,44,14.50
2010,06,29,12,45,14.50
2010,06,29,12,46,14.40
2010,06,29,12,47,14.40
2010,06,29,12,48,14.40
2010,06,29,12,49,14.40
2010,06,29,12,50,14.40
2010,06,29,12,51,14.40
2010,06,29,12,52,14.40
2010,06,29,12,53,14.40
2010,06,29,12,54,14.40
2010,06,29,12,55,14.40
2010,06,29,12,56,14.40
2010,06,29,12,57,14.30
2010,06,29,12,58,14.30
2010,06,29,12,59,14.30
2010,06,29,13,00,14.30
2010,06,29,13,01,14.30
2010,06,29,13,02,14.30
2010,06,29,13,03,14.20
2010,06,29,13,04,14.20
2010,06,29,13,05,14.20
2010,06,29,13,06,14.10
2010,06,29,13,07,14.10
2010,06,29,13,08,14.10
2010,06,29,13,09,14.20
2010,06,29,13,10,14.20
2010,06,29,13,11,14.20
2010,06,29,13,12,14.20
2010,06,29,13,13,14.20
2010,06,29,13,14,14.20
2010,06,29,13,15,14.30
2010,06,29,13,16,14.30
2010,06,29,13,17,14.30
2010,06,29,13,18,14.30
2010,06,29,13,19,14.30
2010,06,29,13,20,14.40
2010,06,29,13,21,14.40
2010,06,29,13,22,14.40
2010,06,29,13,23,14.50
2010,06,29,13,24,14.40
2010,06,29,13,25,14.40
2010,06,29,13,26,14.40
2010,06,29,13,27,14.30
2010,06,29,13,28,14.30
2010,06,29,13,29,14.20
2010,06,29,13,30,14.20
2010,06,29,13,31,14.20
2010,06,29,13,32,14.10
2010,06,29,13,33,14.10
2010,06,29,13,34,14.10
2010,06,29,13,35,14.00
2010,06,29,13,36,14.00
2010,06,29,13,37,14.00
2010,06,29,13,38,14.00
2010,06,29,13,39,14.00
2010,06,29,13,40,14.00
2010,06,29,13,41,14.00
2010,06,29,13,42,13.90
2010,06,29,13,43,13.90
2010,06,29,13,44,14.00
2010,06,29,13,45,14.00
2010,06,29,13,46,14.10
2010,06,29,13,47,14.10
2010,06,29,13,48,14.20
2010,06,29,13,49,14.20
2010,06,29,13,50,14.20
2010,06,29,13,51,14.10
2010,06,29,13,52,14.10
2010,06,29,13,53,14.10
2010,06,29,13,54,14.10
2010,06,29,13,55,14.10
2010,06,29,13,56,14.10
2010,06,29,13,57,14.10
2010,06,29,13,58,14.10
2010,06,29,13,59,14.10
2010,06,29,14,00,14.10
2010,06,29,14,01,14.20
2010,06,29,14,02,14.20
2010,06,29,14,03,14.20
2010,06,29,14,04,14.20
2010,06,29,14,05,14.20
2010,06,29,14,06,14.20
2010,06,29,14,07,14.20
2010,06,29,14,08,14.20
2010,06,29,14,09,14.10
2010,06,29,14,10,14.10
2010,06,29,14,11,14.10
2010,06,29,14,12,14.00
2010,06,29,14,13,14.00
2010,06,29,14,14,14.00
2010,06,29,14,15,13.90
2010,06,29,14,16,13.90
2010,06,29,14,17,13.90
2010,06,29,14,18,13.80
2010,06,29,14,19,13.80
2010,06,29,14,20,13.70
2010,06,29,14,21,13.80
2010,06,29,14,22,13.70
2010,06,29,14,23,13.70
2010,06,29,14,24,13.70
2010,06,29,14,25,13.70
2010,06,29,14,26,13.70
2010,06,29,14,27,13.60
2010,06,29,14,28,13.60
2010,06,29,14,29,13.60
2010,06,29,14,30,13.70
2010,06,29,14,31,13.70
2010,06,29,14,32,13.60
2010,06,29,14,33,13.60
2010,06,29,14,34,13.70
2010,06,29,14,35,13.70
2010,06,29,14,36,13.80
2010,06,29,14,37,13.90
2010,06,29,14,38,14.00
2010,06,29,14,39,14.10
2010,06,29,14,40,14.10
2010,06,29,14,41,14.10
2010,06,29,14,42,14.00
2010,06,29,14,43,13.90
2010,06,29,14,44,13.80
2010,06,29,14,45,13.70
2010,06,29,14,46,13.60
2010,06,29,14,47,13.60
2010,06,29,14,48,13.60
2010,06,29,14,49,13.60
2010,06,29,14,50,13.60
2010,06,29,14,51,13.60
2010,06,29,14,52,13.60
2010,06,29,14,53,13.60
2010,06,29,14,54,13.60
2010,06,29,14,55,13.60
2010,06,29,14,56,13.60
2010,06,29,14,57,13.60
2010,06,29,14,58,13.60
2010,06,29,14,59,13.60
2010,06,29,15,00,13.60
2010,06,29,15,01,13.70
2010,06,29,15,02,13.70
2010,06,29,15,03,13.70
2010,06,29,15,04,13.70
2010,06,29,15,05,13.70
2010,06,29,15,06,13.80
2010,06,29,15,07,13.80
2010,06,29,15,08,13.80
2010,06,29,15,09,13.70
2010,06,29,15,10,13.70
2010,06,29,15,11,13.70
2010,06,29,15,12,13.60
2010,06,29,15,13,13.60
2010,06,29,15,14,13.60
2010,06,29,15,15,13.60
2010,06,29,15,16,13.60
2010,06,29,15,17,13.70
2010,06,29,15,18,13.70
2010,06,29,15,19,13.70
2010,06,29,15,20,13.70
2010,06,29,15,21,13.70
2010,06,29,15,22,13.80
2010,06,29,15,23,13.80
2010,06,29,15,24,13.80
2010,06,29,15,25,13.80
2010,06,29,15,26,13.70
2010,06,29,15,27,13.60
2010,06,29,15,28,13.50
2010,06,29,15,29,13.30
2010,06,29,15,30,13.20
2010,06,29,15,31,13.10
2010,06,29,15,32,13.00
2010,06,29,15,33,12.90
2010,06,29,15,34,12.90
2010,06,29,15,35,12.80
2010,06,29,15,36,12.80
2010,06,29,15,37,12.80
2010,06,29,15,38,12.70
2010,06,29,15,39,12.70
2010,06,29,15,40,12.70
2010,06,29,15,41,12.70
2010,06,29,15,42,12.70
2010,06,29,15,43,12.80
2010,06,29,15,44,12.80
2010,06,29,15,45,12.80
2010,06,29,15,46,12.80
2010,06,29,15,47,12.80
2010,06,29,15,48,12.80
2010,06,29,15,49,12.80
2010,06,29,15,50,12.80
2010,06,29,15,51,12.80
2010,06,29,15,52,12.80
2010,06,29,15,53,12.80
2010,06,29,15,54,12.80
2010,06,29,15,55,12.80
2010,06,29,15,56,12.80
2010,06,29,15,57,12.80
2010,06,29,15,58,12.80
2010,06,29,15,59,12.80
2010,06,29,16,00,12.80
2010,06,29,16,01,12.90
2010,06,29,16,02,12.90
2010,06,29,16,03,12.90
2010,06,29,16,04,12.90
2010,06,29,16,05,12.90
2010,06,29,16,06,12.80
2010,06,29,16,07,12.80
2010,06,29,16,08,12.80
2010,06,29,16,09,12.80
2010,06,29,16,10,12.80
2010,06,29,16,11,12.80
2010,06,29,16,12,12.90
2010,06,29,16,13,12.90
2010,06,29,16,14,12.90
2010,06,29,16,15,13.00
2010,06,29,16,16,13.10
2010,06,29,16,17,13.10
2010,06,29,16,18,13.20
2010,06,29,16,19,13.20
2010,06,29,16,20,13.30
2010,06,29,16,21,13.40
2010,06,29,16,22,13.40
2010,06,29,16,23,13.50
2010,06,29,16,24,13.60
2010,06,29,16,25,13.60
2010,06,29,16,26,13.60
2010,06,29,16,27,13.70
2010,06,29,16,28,13.70
2010,06,29,16,29,13.70
2010,06,29,16,30,13.80
2010,06,29,16,31,13.80
2010,06,29,16,32,13.90
2010,06,29,16,33,13.90
2010,06,29,16,34,14.00
2010,06,29,16,35,14.00
2010,06,29,16,36,14.10
2010,06,29,16,37,14.20
2010,06,29,16,38,14.20
2010,06,29,16,39,14.30
2010,06,29,16,40,14.40
2010,06,29,16,41,14.40
2010,06,29,16,42,14.40
2010,06,29,16,43,14.40
2010,06,29,16,44,14.40
2010,06,29,16,45,14.40
2010,06,29,16,46,14.50
2010,06,29,16,47,14.60
2010,06,29,16,48,14.60
2010,06,29,16,49,14.70
2010,06,29,16,50,14.70
2010,06,29,16,51,14.70
2010,06,29,16,52,14.80
2010,06,29,16,53,14.90
2010,06,29,16,54,14.90
2010,06,29,16,55,15.00
2010,06,29,16,56,15.00
2010,06,29,16,57,15.00
2010,06,29,16,58,15.00
2010,06,29,16,59,15.10
2010,06,29,17,00,15.00
2010,06,29,17,01,15.00
2010,06,29,17,02,15.00
2010,06,29,17,03,15.00
2010,06,29,17,04,14.90
2010,06,29,17,05,14.80
2010,06,29,17,06,14.70
2010,06,29,17,07,14.60
2010,06,29,17,08,14.50
2010,06,29,17,09,14.50
2010,06,29,17,10,14.50
2010,06,29,17,11,14.50
2010,06,29,17,12,14.50
2010,06,29,17,13,14.50
2010,06,29,17,14,14.60
2010,06,29,17,15,14.70
2010,06,29,17,16,14.70
2010,06,29,17,17,14.80
2010,06,29,17,18,14.80
2010,06,29,17,19,14.90
2010,06,29,17,20,15.00
2010,06,29,17,21,15.00
2010,06,29,17,22,15.00
2010,06,29,17,23,15.20
2010,06,29,17,24,15.30
2010,06,29,17,25,15.40
2010,06,29,17,26,15.40
2010,06,29,17,27,15.40
2010,06,29,17,28,15.40
2010,06,29,17,29,15.40